owner,sensor,date,latitude,longitude,vertical_datum,wind_speed,wind_to_direction,wind_speed_of_gust,qcFlag 
WAVCIS,ioos:station:WAVCIS:CSI06:1,2014-07-01T00:00:00Z,28.8667,-90.4833,10.0,3.6,230.0,4.6,'11111222,11111222,11111222' 
WAVCIS,ioos:station:WAVCIS:CSI06:1,2014-07-01T01:00:00Z,28.8667,-90.4833,10.0,3.6,240.0,4.6,'11111222,11111222,11111222' 
WAVCIS,ioos:station:WAVCIS:CSI06:1,2014-07-01T02:00:00Z,28.8667,-90.4833,10.0,3.6,240.0,4.6,'11111222,11111222,11111222' 
WAVCIS,ioos:station:WAVCIS:CSI06:1,2014-07-01T03:00:00Z,28.8667,-90.4833,10.0,3.1,220.0,4.1,'11111222,11111222,11111222' 
WAVCIS,ioos:station:WAVCIS:CSI06:1,2014-07-01T04:00:00Z,28.8667,-90.4833,10.0,2.6,230.0,3.1,'11111222,11111222,11111222' 
WAVCIS,ioos:station:WAVCIS:CSI06:1,2014-07-01T05:00:00Z,28.8667,-90.4833,10.0,2.6,200.0,3.6,'11111222,11111222,11111222' 
WAVCIS,ioos:station:WAVCIS:CSI06:1,2014-07-01T06:00:00Z,28.8667,-90.4833,10.0,3.6,180.0,4.1,'11111222,11111222,11111222' 
WAVCIS,ioos:station:WAVCIS:CSI06:1,2014-07-01T07:00:00Z,28.8667,-90.4833,10.0,4.1,190.0,4.6,'11111222,11111222,11111222' 
WAVCIS,ioos:station:WAVCIS:CSI06:1,2014-07-01T08:00:00Z,28.8667,-90.4833,10.0,5.1,220.0,6.2,'11111222,11111222,11111222' 
WAVCIS,ioos:station:WAVCIS:CSI06:1,2014-07-01T09:00:00Z,28.8667,-90.4833,10.0,6.2,230.0,7.2,'11111222,11111222,11111222' 
WAVCIS,ioos:station:WAVCIS:CSI06:1,2014-07-01T10:00:00Z,28.8667,-90.4833,10.0,5.7,220.0,6.2,'11111222,11111222,11111222' 
WAVCIS,ioos:station:WAVCIS:CSI06:1,2014-07-01T11:00:00Z,28.8667,-90.4833,10.0,5.1,240.0,6.2,'11111222,11111222,11111222' 
WAVCIS,ioos:station:WAVCIS:CSI06:1,2014-07-01T12:00:00Z,28.8667,-90.4833,10.0,5.7,250.0,6.7,'11111222,11111222,11111222' 
WAVCIS,ioos:station:WAVCIS:CSI06:1,2014-07-01T13:00:00Z,28.8667,-90.4833,10.0,4.1,260.0,5.1,'11111222,11111222,11111222' 
WAVCIS,ioos:station:WAVCIS:CSI06:1,2014-07-01T14:00:00Z,28.8667,-90.4833,10.0,3.6,320.0,4.6,'11111222,11111222,11111222' 
WAVCIS,ioos:station:WAVCIS:CSI06:1,2014-07-01T15:00:00Z,28.8667,-90.4833,10.0,3.1,320.0,4.1,'11111222,11111222,11111222' 
WAVCIS,ioos:station:WAVCIS:CSI06:1,2014-07-01T16:00:00Z,28.8667,-90.4833,10.0,2.6,310.0,3.1,'11111222,11111222,11111222' 
WAVCIS,ioos:station:WAVCIS:CSI06:1,2014-07-01T17:00:00Z,28.8667,-90.4833,10.0,3.6,310.0,4.6,'11111222,11111222,11111222' 
WAVCIS,ioos:station:WAVCIS:CSI06:1,2014-07-01T18:00:00Z,28.8667,-90.4833,10.0,2.6,260.0,3.6,'11111222,11111222,11111222' 
WAVCIS,ioos:station:WAVCIS:CSI06:1,2014-07-01T19:00:00Z,28.8667,-90.4833,10.0,1.5,240.0,2.1,'11111222,11111222,11111222' 
WAVCIS,ioos:station:WAVCIS:CSI06:1,2014-07-01T20:00:00Z,28.8667,-90.4833,10.0,2.1,260.0,2.6,'11111222,11111222,11111222' 
WAVCIS,ioos:station:WAVCIS:CSI06:1,2014-07-01T21:00:00Z,28.8667,-90.4833,10.0,1.0,280.0,2.1,'11111222,11111222,11111222' 
WAVCIS,ioos:station:WAVCIS:CSI06:1,2014-07-01T22:00:00Z,28.8667,-90.4833,10.0,1.5,200.0,2.6,'11111222,11111222,11111222' 
WAVCIS,ioos:station:WAVCIS:CSI06:1,2014-07-01T23:00:00Z,28.8667,-90.4833,10.0,2.6,230.0,3.6,'11111222,11111222,11111222' 
WAVCIS,ioos:station:WAVCIS:CSI06:1,2014-07-02T00:00:00Z,28.8667,-90.4833,10.0,3.6,240.0,4.6,'11111222,11111222,11111222' 
WAVCIS,ioos:station:WAVCIS:CSI06:1,2014-07-02T01:00:00Z,28.8667,-90.4833,10.0,3.6,260.0,4.1,'11111222,11111222,11111222' 
WAVCIS,ioos:station:WAVCIS:CSI06:1,2014-07-02T02:00:00Z,28.8667,-90.4833,10.0,3.1,250.0,3.6,'11111222,11111222,11111222' 
WAVCIS,ioos:station:WAVCIS:CSI06:1,2014-07-02T03:00:00Z,28.8667,-90.4833,10.0,4.1,260.0,5.1,'11111222,11111222,11111222' 
WAVCIS,ioos:station:WAVCIS:CSI06:1,2014-07-02T04:00:00Z,28.8667,-90.4833,10.0,4.1,260.0,5.1,'11111222,11111222,11111222' 
WAVCIS,ioos:station:WAVCIS:CSI06:1,2014-07-02T05:00:00Z,28.8667,-90.4833,10.0,4.1,260.0,5.1,'11111222,11111222,11111222' 
WAVCIS,ioos:station:WAVCIS:CSI06:1,2014-07-02T06:00:00Z,28.8667,-90.4833,10.0,5.1,280.0,6.7,'11111222,11111222,11111222' 
WAVCIS,ioos:station:WAVCIS:CSI06:1,2014-07-02T07:00:00Z,28.8667,-90.4833,10.0,5.1,270.0,6.2,'11111222,11111222,11111222' 
WAVCIS,ioos:station:WAVCIS:CSI06:1,2014-07-02T08:00:00Z,28.8667,-90.4833,10.0,5.7,270.0,6.7,'11111222,11111222,11111222' 
WAVCIS,ioos:station:WAVCIS:CSI06:1,2014-07-02T09:00:00Z,28.8667,-90.4833,10.0,5.7,290.0,6.7,'11111222,11111222,11111222' 
WAVCIS,ioos:station:WAVCIS:CSI06:1,2014-07-02T10:00:00Z,28.8667,-90.4833,10.0,5.1,320.0,6.2,'11111222,11111222,11111222' 
WAVCIS,ioos:station:WAVCIS:CSI06:1,2014-07-02T11:00:00Z,28.8667,-90.4833,10.0,5.7,320.0,6.7,'11111222,11111222,11111222' 
WAVCIS,ioos:station:WAVCIS:CSI06:1,2014-07-02T12:00:00Z,28.8667,-90.4833,10.0,6.7,340.0,8.2,'11111222,11111222,11111222' 
WAVCIS,ioos:station:WAVCIS:CSI06:1,2014-07-02T13:00:00Z,28.8667,-90.4833,10.0,5.1,350.0,7.7,'11111222,11111222,11111222' 
WAVCIS,ioos:station:WAVCIS:CSI06:1,2014-07-02T14:00:00Z,28.8667,-90.4833,10.0,4.1,10.0,6.2,'11111222,11111222,11111222' 
WAVCIS,ioos:station:WAVCIS:CSI06:1,2014-07-02T15:00:00Z,28.8667,-90.4833,10.0,4.6,20.0,6.2,'11111222,11111222,11111222' 
WAVCIS,ioos:station:WAVCIS:CSI06:1,2014-07-02T16:00:00Z,28.8667,-90.4833,10.0,3.1,360.0,4.6,'11111222,11144222,11111222' 
WAVCIS,ioos:station:WAVCIS:CSI06:1,2014-07-02T17:00:00Z,28.8667,-90.4833,10.0,2.1,10.0,3.6,'11111222,11111222,11111222' 
WAVCIS,ioos:station:WAVCIS:CSI06:1,2014-07-02T18:00:00Z,28.8667,-90.4833,10.0,2.1,330.0,2.6,'11111222,11111222,11111222' 
WAVCIS,ioos:station:WAVCIS:CSI06:1,2014-07-02T19:00:00Z,28.8667,-90.4833,10.0,3.1,300.0,3.6,'11111222,11111222,11111222' 
WAVCIS,ioos:station:WAVCIS:CSI06:1,2014-07-02T20:00:00Z,28.8667,-90.4833,10.0,2.6,280.0,3.6,'11111222,11111222,11111222' 
WAVCIS,ioos:station:WAVCIS:CSI06:1,2014-07-02T21:00:00Z,28.8667,-90.4833,10.0,1.5,250.0,2.6,'11111222,11111222,11111222' 
WAVCIS,ioos:station:WAVCIS:CSI06:1,2014-07-02T23:00:00Z,28.8667,-90.4833,10.0,3.1,260.0,4.1,'11111222,11111222,11111222' 
WAVCIS,ioos:station:WAVCIS:CSI06:1,2014-07-03T00:00:00Z,28.8667,-90.4833,10.0,6.2,290.0,7.2,'11111222,11111222,11111222' 
WAVCIS,ioos:station:WAVCIS:CSI06:1,2014-07-03T01:00:00Z,28.8667,-90.4833,10.0,6.7,280.0,7.2,'11111222,11111222,11111222' 
WAVCIS,ioos:station:WAVCIS:CSI06:1,2014-07-03T02:00:00Z,28.8667,-90.4833,10.0,5.7,330.0,6.7,'11111222,11111222,11111222' 
WAVCIS,ioos:station:WAVCIS:CSI06:1,2014-07-03T03:00:00Z,28.8667,-90.4833,10.0,5.1,320.0,6.2,'11111222,11111222,11111222' 
WAVCIS,ioos:station:WAVCIS:CSI06:1,2014-07-03T04:00:00Z,28.8667,-90.4833,10.0,6.7,340.0,8.2,'11111222,11111222,11111222' 
WAVCIS,ioos:station:WAVCIS:CSI06:1,2014-07-03T05:00:00Z,28.8667,-90.4833,10.0,5.7,40.0,7.7,'11111222,11111222,11111222' 
WAVCIS,ioos:station:WAVCIS:CSI06:1,2014-07-03T06:00:00Z,28.8667,-90.4833,10.0,5.7,40.0,7.2,'11111222,11111222,11111222' 
WAVCIS,ioos:station:WAVCIS:CSI06:1,2014-07-03T07:00:00Z,28.8667,-90.4833,10.0,3.1,40.0,5.1,'11111222,11111222,11111222' 
WAVCIS,ioos:station:WAVCIS:CSI06:1,2014-07-03T08:00:00Z,28.8667,-90.4833,10.0,3.6,10.0,4.6,'11111222,11111222,11111222' 
WAVCIS,ioos:station:WAVCIS:CSI06:1,2014-07-03T09:00:00Z,28.8667,-90.4833,10.0,2.6,360.0,4.1,'11111222,11144222,11111222' 
WAVCIS,ioos:station:WAVCIS:CSI06:1,2014-07-03T10:00:00Z,28.8667,-90.4833,10.0,4.6,20.0,5.7,'11111222,11111222,11111222' 
WAVCIS,ioos:station:WAVCIS:CSI06:1,2014-07-03T11:00:00Z,28.8667,-90.4833,10.0,5.7,10.0,7.2,'11111222,11111222,11111222' 
WAVCIS,ioos:station:WAVCIS:CSI06:1,2014-07-03T12:00:00Z,28.8667,-90.4833,10.0,4.6,20.0,6.2,'11111222,11111222,11111222' 
WAVCIS,ioos:station:WAVCIS:CSI06:1,2014-07-03T13:00:00Z,28.8667,-90.4833,10.0,3.6,10.0,5.7,'11111222,11111222,11111222' 
WAVCIS,ioos:station:WAVCIS:CSI06:1,2014-07-03T14:00:00Z,28.8667,-90.4833,10.0,4.6,340.0,6.2,'11111222,11111222,11111222' 
WAVCIS,ioos:station:WAVCIS:CSI06:1,2014-07-03T15:00:00Z,28.8667,-90.4833,10.0,4.6,10.0,5.7,'11111222,11111222,11111222' 
WAVCIS,ioos:station:WAVCIS:CSI06:1,2014-07-03T16:00:00Z,28.8667,-90.4833,10.0,3.6,10.0,6.2,'11111222,11111222,11111222' 
WAVCIS,ioos:station:WAVCIS:CSI06:1,2014-07-03T17:00:00Z,28.8667,-90.4833,10.0,4.1,350.0,5.7,'11111222,11111222,11111222' 
WAVCIS,ioos:station:WAVCIS:CSI06:1,2014-07-03T18:00:00Z,28.8667,-90.4833,10.0,5.1,10.0,7.2,'11111222,11111222,11111222' 
WAVCIS,ioos:station:WAVCIS:CSI06:1,2014-07-03T19:00:00Z,28.8667,-90.4833,10.0,3.1,40.0,4.6,'11111222,11111222,11111222' 
WAVCIS,ioos:station:WAVCIS:CSI06:1,2014-07-03T20:00:00Z,28.8667,-90.4833,10.0,6.2,80.0,7.2,'11111222,11111222,11111222' 
WAVCIS,ioos:station:WAVCIS:CSI06:1,2014-07-03T21:00:00Z,28.8667,-90.4833,10.0,6.7,100.0,8.2,'11111222,11111222,11111222' 
WAVCIS,ioos:station:WAVCIS:CSI06:1,2014-07-03T22:00:00Z,28.8667,-90.4833,10.0,6.2,150.0,6.7,'11111222,11111222,11111222' 
WAVCIS,ioos:station:WAVCIS:CSI06:1,2014-07-03T23:00:00Z,28.8667,-90.4833,10.0,5.1,180.0,5.7,'11111222,11111222,11111222' 
WAVCIS,ioos:station:WAVCIS:CSI06:1,2014-07-04T00:00:00Z,28.8667,-90.4833,10.0,5.1,210.0,5.7,'11111222,11111222,11111222' 
WAVCIS,ioos:station:WAVCIS:CSI06:1,2014-07-04T01:00:00Z,28.8667,-90.4833,10.0,4.1,210.0,4.6,'11111222,11111222,11111222' 
WAVCIS,ioos:station:WAVCIS:CSI06:1,2014-07-04T02:00:00Z,28.8667,-90.4833,10.0,3.1,250.0,4.1,'11111222,11111222,11111222' 
WAVCIS,ioos:station:WAVCIS:CSI06:1,2014-07-04T03:00:00Z,28.8667,-90.4833,10.0,3.1,300.0,3.6,'11111222,11111222,11111222' 
WAVCIS,ioos:station:WAVCIS:CSI06:1,2014-07-04T04:00:00Z,28.8667,-90.4833,10.0,2.1,320.0,2.6,'11111222,11111222,11111222' 
WAVCIS,ioos:station:WAVCIS:CSI06:1,2014-07-04T05:00:00Z,28.8667,-90.4833,10.0,1.5,310.0,2.1,'11111222,11111222,11111222' 
WAVCIS,ioos:station:WAVCIS:CSI06:1,2014-07-04T06:00:00Z,28.8667,-90.4833,10.0,3.1,310.0,4.1,'11111222,11111222,11111222' 
WAVCIS,ioos:station:WAVCIS:CSI06:1,2014-07-04T07:00:00Z,28.8667,-90.4833,10.0,2.1,320.0,2.6,'11111222,11111222,11111222' 
WAVCIS,ioos:station:WAVCIS:CSI06:1,2014-07-04T08:00:00Z,28.8667,-90.4833,10.0,2.1,320.0,3.1,'11111222,11111222,11111222' 
WAVCIS,ioos:station:WAVCIS:CSI06:1,2014-07-04T09:00:00Z,28.8667,-90.4833,10.0,3.6,330.0,4.1,'11111222,11111222,11111222' 
WAVCIS,ioos:station:WAVCIS:CSI06:1,2014-07-04T10:00:00Z,28.8667,-90.4833,10.0,3.1,340.0,4.6,'11111222,11111222,11111222' 
WAVCIS,ioos:station:WAVCIS:CSI06:1,2014-07-04T11:00:00Z,28.8667,-90.4833,10.0,3.6,20.0,4.1,'11111222,11111222,11111222' 
WAVCIS,ioos:station:WAVCIS:CSI06:1,2014-07-04T12:00:00Z,28.8667,-90.4833,10.0,3.1,20.0,4.1,'11111222,11111222,11111222' 
WAVCIS,ioos:station:WAVCIS:CSI06:1,2014-07-04T13:00:00Z,28.8667,-90.4833,10.0,5.7,30.0,7.2,'11111222,11111222,11111222' 
WAVCIS,ioos:station:WAVCIS:CSI06:1,2014-07-04T14:00:00Z,28.8667,-90.4833,10.0,5.7,50.0,6.2,'11111222,11111222,11111222' 
WAVCIS,ioos:station:WAVCIS:CSI06:1,2014-07-04T15:00:00Z,28.8667,-90.4833,10.0,2.1,110.0,4.1,'11111222,11111222,11111222' 
WAVCIS,ioos:station:WAVCIS:CSI06:1,2014-07-04T16:00:00Z,28.8667,-90.4833,10.0,5.1,70.0,6.2,'11111222,11111222,11111222' 
WAVCIS,ioos:station:WAVCIS:CSI06:1,2014-07-04T17:00:00Z,28.8667,-90.4833,10.0,5.7,70.0,6.7,'11111222,11111222,11111222' 
WAVCIS,ioos:station:WAVCIS:CSI06:1,2014-07-04T18:00:00Z,28.8667,-90.4833,10.0,3.6,120.0,4.1,'11111222,11111222,11111222' 
WAVCIS,ioos:station:WAVCIS:CSI06:1,2014-07-04T19:00:00Z,28.8667,-90.4833,10.0,3.1,130.0,3.6,'11111222,11111222,11111222' 
WAVCIS,ioos:station:WAVCIS:CSI06:1,2014-07-04T20:00:00Z,28.8667,-90.4833,10.0,2.1,120.0,3.6,'11111222,11111222,11111222' 
WAVCIS,ioos:station:WAVCIS:CSI06:1,2014-07-04T21:00:00Z,28.8667,-90.4833,10.0,1.0,140.0,1.5,'11111222,11111222,11111222' 
WAVCIS,ioos:station:WAVCIS:CSI06:1,2014-07-04T22:00:00Z,28.8667,-90.4833,10.0,0.5,130.0,1.0,'11111222,11111222,11111222' 
WAVCIS,ioos:station:WAVCIS:CSI06:1,2014-07-04T23:00:00Z,28.8667,-90.4833,10.0,1.0,250.0,1.5,'11111222,11111222,11111222' 
WAVCIS,ioos:station:WAVCIS:CSI06:1,2014-07-05T00:00:00Z,28.8667,-90.4833,10.0,3.1,330.0,4.1,'11111222,11111222,11111222' 
WAVCIS,ioos:station:WAVCIS:CSI06:1,2014-07-05T01:00:00Z,28.8667,-90.4833,10.0,6.2,360.0,10.3,'11111222,11144222,11111222' 
WAVCIS,ioos:station:WAVCIS:CSI06:1,2014-07-05T02:00:00Z,28.8667,-90.4833,10.0,3.6,40.0,4.6,'11111222,11111222,11111222' 
WAVCIS,ioos:station:WAVCIS:CSI06:1,2014-07-05T03:00:00Z,28.8667,-90.4833,10.0,3.1,20.0,3.6,'11111222,11111222,11111222' 
WAVCIS,ioos:station:WAVCIS:CSI06:1,2014-07-05T04:00:00Z,28.8667,-90.4833,10.0,3.1,30.0,4.6,'11111222,11111222,11111222' 
WAVCIS,ioos:station:WAVCIS:CSI06:1,2014-07-05T05:00:00Z,28.8667,-90.4833,10.0,4.6,60.0,5.7,'11111222,11111222,11111222' 
WAVCIS,ioos:station:WAVCIS:CSI06:1,2014-07-05T06:00:00Z,28.8667,-90.4833,10.0,2.6,100.0,3.1,'11111222,11111222,11111222' 
WAVCIS,ioos:station:WAVCIS:CSI06:1,2014-07-05T07:00:00Z,28.8667,-90.4833,10.0,5.1,130.0,6.2,'11111222,11111222,11111222' 
WAVCIS,ioos:station:WAVCIS:CSI06:1,2014-07-05T08:00:00Z,28.8667,-90.4833,10.0,8.2,40.0,9.8,'11111222,11111222,11111222' 
WAVCIS,ioos:station:WAVCIS:CSI06:1,2014-07-05T09:00:00Z,28.8667,-90.4833,10.0,3.6,60.0,4.1,'11111222,11111222,11111222' 
WAVCIS,ioos:station:WAVCIS:CSI06:1,2014-07-05T10:00:00Z,28.8667,-90.4833,10.0,7.2,100.0,8.2,'11111222,11111222,11111222' 
WAVCIS,ioos:station:WAVCIS:CSI06:1,2014-07-05T11:00:00Z,28.8667,-90.4833,10.0,3.6,110.0,4.1,'11111222,11111222,11111222' 
WAVCIS,ioos:station:WAVCIS:CSI06:1,2014-07-05T12:00:00Z,28.8667,-90.4833,10.0,2.6,100.0,3.1,'11111222,11111222,11111222' 
WAVCIS,ioos:station:WAVCIS:CSI06:1,2014-07-05T13:00:00Z,28.8667,-90.4833,10.0,4.6,60.0,5.7,'11111222,11111222,11111222' 
WAVCIS,ioos:station:WAVCIS:CSI06:1,2014-07-05T14:00:00Z,28.8667,-90.4833,10.0,3.1,60.0,4.6,'11111222,11111222,11111222' 
WAVCIS,ioos:station:WAVCIS:CSI06:1,2014-07-05T15:00:00Z,28.8667,-90.4833,10.0,3.1,60.0,4.1,'11111222,11111222,11111222' 
WAVCIS,ioos:station:WAVCIS:CSI06:1,2014-07-05T16:00:00Z,28.8667,-90.4833,10.0,3.1,70.0,4.1,'11111222,11111222,11111222' 
WAVCIS,ioos:station:WAVCIS:CSI06:1,2014-07-05T17:00:00Z,28.8667,-90.4833,10.0,2.1,90.0,3.1,'11111222,11111222,11111222' 
WAVCIS,ioos:station:WAVCIS:CSI06:1,2014-07-05T18:00:00Z,28.8667,-90.4833,10.0,1.0,180.0,1.5,'11111222,11111222,11111222' 
WAVCIS,ioos:station:WAVCIS:CSI06:1,2014-07-05T19:00:00Z,28.8667,-90.4833,10.0,1.5,140.0,2.1,'11111222,11111222,11111222' 
WAVCIS,ioos:station:WAVCIS:CSI06:1,2014-07-05T20:00:00Z,28.8667,-90.4833,10.0,0.5,220.0,1.5,'11111222,11111222,11111222' 
WAVCIS,ioos:station:WAVCIS:CSI06:1,2014-07-05T21:00:00Z,28.8667,-90.4833,10.0,0.5,130.0,1.5,'11111222,11111222,11111222' 
WAVCIS,ioos:station:WAVCIS:CSI06:1,2014-07-05T22:00:00Z,28.8667,-90.4833,10.0,1.5,210.0,2.1,'11111222,11111222,11111222' 
WAVCIS,ioos:station:WAVCIS:CSI06:1,2014-07-05T23:00:00Z,28.8667,-90.4833,10.0,0.5,300.0,1.0,'11111222,11111222,11111222' 
WAVCIS,ioos:station:WAVCIS:CSI06:1,2014-07-06T00:00:00Z,28.8667,-90.4833,10.0,0.5,240.0,1.0,'11111222,11111222,11111222' 
WAVCIS,ioos:station:WAVCIS:CSI06:1,2014-07-06T01:00:00Z,28.8667,-90.4833,10.0,2.1,220.0,3.1,'11111222,11111222,11111222' 
WAVCIS,ioos:station:WAVCIS:CSI06:1,2014-07-06T02:00:00Z,28.8667,-90.4833,10.0,1.5,240.0,2.6,'11111222,11111222,11111222' 
WAVCIS,ioos:station:WAVCIS:CSI06:1,2014-07-06T03:00:00Z,28.8667,-90.4833,10.0,1.5,220.0,2.1,'11111222,11111222,11111222' 
WAVCIS,ioos:station:WAVCIS:CSI06:1,2014-07-06T04:00:00Z,28.8667,-90.4833,10.0,1.5,260.0,2.1,'11111222,11111222,11111222' 
WAVCIS,ioos:station:WAVCIS:CSI06:1,2014-07-06T05:00:00Z,28.8667,-90.4833,10.0,1.5,240.0,2.1,'11111222,11111222,11111222' 
WAVCIS,ioos:station:WAVCIS:CSI06:1,2014-07-06T06:00:00Z,28.8667,-90.4833,10.0,1.0,180.0,1.5,'11111222,11111222,11111222' 
WAVCIS,ioos:station:WAVCIS:CSI06:1,2014-07-06T07:00:00Z,28.8667,-90.4833,10.0,2.1,210.0,2.6,'11111222,11111222,11111222' 
WAVCIS,ioos:station:WAVCIS:CSI06:1,2014-07-06T08:00:00Z,28.8667,-90.4833,10.0,4.6,190.0,5.7,'11111222,11111222,11111222' 
WAVCIS,ioos:station:WAVCIS:CSI06:1,2014-07-06T09:00:00Z,28.8667,-90.4833,10.0,3.6,220.0,5.1,'11111222,11111222,11111222' 
WAVCIS,ioos:station:WAVCIS:CSI06:1,2014-07-06T10:00:00Z,28.8667,-90.4833,10.0,4.1,220.0,5.1,'11111222,11111222,11111222' 
WAVCIS,ioos:station:WAVCIS:CSI06:1,2014-07-06T11:00:00Z,28.8667,-90.4833,10.0,4.1,230.0,5.7,'11111222,11111222,11111222' 
WAVCIS,ioos:station:WAVCIS:CSI06:1,2014-07-06T12:00:00Z,28.8667,-90.4833,10.0,4.1,240.0,5.1,'11111222,11111222,11111222' 
WAVCIS,ioos:station:WAVCIS:CSI06:1,2014-07-06T13:00:00Z,28.8667,-90.4833,10.0,2.1,280.0,3.1,'11111222,11111222,11111222' 
WAVCIS,ioos:station:WAVCIS:CSI06:1,2014-07-06T14:00:00Z,28.8667,-90.4833,10.0,3.6,330.0,4.6,'11111222,11111222,11111222' 
WAVCIS,ioos:station:WAVCIS:CSI06:1,2014-07-06T15:00:00Z,28.8667,-90.4833,10.0,2.1,360.0,3.6,'11111222,11144222,11111222' 
WAVCIS,ioos:station:WAVCIS:CSI06:1,2014-07-06T16:00:00Z,28.8667,-90.4833,10.0,2.1,330.0,3.1,'11111222,11111222,11111222' 
WAVCIS,ioos:station:WAVCIS:CSI06:1,2014-07-06T17:00:00Z,28.8667,-90.4833,10.0,1.5,320.0,2.6,'11111222,11111222,11111222' 
WAVCIS,ioos:station:WAVCIS:CSI06:1,2014-07-06T18:00:00Z,28.8667,-90.4833,10.0,2.6,320.0,3.6,'11111222,11111222,11111222' 
WAVCIS,ioos:station:WAVCIS:CSI06:1,2014-07-06T19:00:00Z,28.8667,-90.4833,10.0,2.6,330.0,3.6,'11111222,11111222,11111222' 
WAVCIS,ioos:station:WAVCIS:CSI06:1,2014-07-06T20:00:00Z,28.8667,-90.4833,10.0,2.1,290.0,3.1,'11111222,11111222,11111222' 
WAVCIS,ioos:station:WAVCIS:CSI06:1,2014-07-06T21:00:00Z,28.8667,-90.4833,10.0,2.1,320.0,2.6,'11111222,11111222,11111222' 
WAVCIS,ioos:station:WAVCIS:CSI06:1,2014-07-06T22:00:00Z,28.8667,-90.4833,10.0,2.1,290.0,2.6,'11111222,11111222,11111222' 
WAVCIS,ioos:station:WAVCIS:CSI06:1,2014-07-06T23:00:00Z,28.8667,-90.4833,10.0,2.6,250.0,3.6,'11111222,11111222,11111222' 
WAVCIS,ioos:station:WAVCIS:CSI06:1,2014-07-07T00:00:00Z,28.8667,-90.4833,10.0,2.6,230.0,3.6,'11111222,11111222,11111222' 
WAVCIS,ioos:station:WAVCIS:CSI06:1,2014-07-07T01:00:00Z,28.8667,-90.4833,10.0,2.6,230.0,3.6,'11111222,11111222,11111222' 
WAVCIS,ioos:station:WAVCIS:CSI06:1,2014-07-07T02:00:00Z,28.8667,-90.4833,10.0,3.1,210.0,3.6,'11111222,11111222,11111222' 
WAVCIS,ioos:station:WAVCIS:CSI06:1,2014-07-07T03:00:00Z,28.8667,-90.4833,10.0,3.6,220.0,4.6,'11111222,11111222,11111222' 
WAVCIS,ioos:station:WAVCIS:CSI06:1,2014-07-07T04:00:00Z,28.8667,-90.4833,10.0,2.6,220.0,3.6,'11111222,11111222,11111222' 
WAVCIS,ioos:station:WAVCIS:CSI06:1,2014-07-07T05:00:00Z,28.8667,-90.4833,10.0,2.6,210.0,3.6,'11111222,11111222,11111222' 
WAVCIS,ioos:station:WAVCIS:CSI06:1,2014-07-07T06:00:00Z,28.8667,-90.4833,10.0,2.6,200.0,3.6,'11111222,11111222,11111222' 
WAVCIS,ioos:station:WAVCIS:CSI06:1,2014-07-07T07:00:00Z,28.8667,-90.4833,10.0,3.1,200.0,4.1,'11111222,11111222,11111222' 
WAVCIS,ioos:station:WAVCIS:CSI06:1,2014-07-07T08:00:00Z,28.8667,-90.4833,10.0,3.6,220.0,4.6,'11111222,11111222,11111222' 
WAVCIS,ioos:station:WAVCIS:CSI06:1,2014-07-07T09:00:00Z,28.8667,-90.4833,10.0,4.1,220.0,5.1,'11111222,11111222,11111222' 
WAVCIS,ioos:station:WAVCIS:CSI06:1,2014-07-07T10:00:00Z,28.8667,-90.4833,10.0,3.6,230.0,5.1,'11111222,11111222,11111222' 
WAVCIS,ioos:station:WAVCIS:CSI06:1,2014-07-07T11:00:00Z,28.8667,-90.4833,10.0,3.1,230.0,4.1,'11111222,11111222,11111222' 
WAVCIS,ioos:station:WAVCIS:CSI06:1,2014-07-07T12:00:00Z,28.8667,-90.4833,10.0,2.6,250.0,3.6,'11111222,11111222,11111222' 
WAVCIS,ioos:station:WAVCIS:CSI06:1,2014-07-07T13:00:00Z,28.8667,-90.4833,10.0,2.1,280.0,2.6,'11111222,11111222,11111222' 
WAVCIS,ioos:station:WAVCIS:CSI06:1,2014-07-07T14:00:00Z,28.8667,-90.4833,10.0,1.5,230.0,2.1,'11111222,11111222,11111222' 
WAVCIS,ioos:station:WAVCIS:CSI06:1,2014-07-07T15:00:00Z,28.8667,-90.4833,10.0,1.5,200.0,2.1,'11111222,11111222,11111222' 
WAVCIS,ioos:station:WAVCIS:CSI06:1,2014-07-07T17:00:00Z,28.8667,-90.4833,10.0,1.0,210.0,2.1,'11111222,11111222,11111222' 
WAVCIS,ioos:station:WAVCIS:CSI06:1,2014-07-07T19:00:00Z,28.8667,-90.4833,10.0,3.1,170.0,4.1,'11111222,11111222,11111222' 
WAVCIS,ioos:station:WAVCIS:CSI06:1,2014-07-07T20:00:00Z,28.8667,-90.4833,10.0,3.6,170.0,4.6,'11111222,11111222,11111222' 
WAVCIS,ioos:station:WAVCIS:CSI06:1,2014-07-07T21:00:00Z,28.8667,-90.4833,10.0,3.1,160.0,5.1,'11111222,11111222,11111222' 
WAVCIS,ioos:station:WAVCIS:CSI06:1,2014-07-07T22:00:00Z,28.8667,-90.4833,10.0,4.1,170.0,5.1,'11111222,11111222,11111222' 
WAVCIS,ioos:station:WAVCIS:CSI06:1,2014-07-07T23:00:00Z,28.8667,-90.4833,10.0,3.6,180.0,4.6,'11111222,11111222,11111222' 
WAVCIS,ioos:station:WAVCIS:CSI06:1,2014-07-08T00:00:00Z,28.8667,-90.4833,10.0,4.6,160.0,6.7,'11111222,11111222,11111222' 
WAVCIS,ioos:station:WAVCIS:CSI06:1,2014-07-08T01:00:00Z,28.8667,-90.4833,10.0,5.7,170.0,6.7,'11111222,11111222,11111222' 
WAVCIS,ioos:station:WAVCIS:CSI06:1,2014-07-08T02:00:00Z,28.8667,-90.4833,10.0,5.1,170.0,6.7,'11111222,11111222,11111222' 
WAVCIS,ioos:station:WAVCIS:CSI06:1,2014-07-08T03:00:00Z,28.8667,-90.4833,10.0,5.7,180.0,6.7,'11111222,11111222,11111222' 
WAVCIS,ioos:station:WAVCIS:CSI06:1,2014-07-08T04:00:00Z,28.8667,-90.4833,10.0,5.1,190.0,6.2,'11111222,11111222,11111222' 
WAVCIS,ioos:station:WAVCIS:CSI06:1,2014-07-08T05:00:00Z,28.8667,-90.4833,10.0,5.7,180.0,6.7,'11111222,11111222,11111222' 
WAVCIS,ioos:station:WAVCIS:CSI06:1,2014-07-08T06:00:00Z,28.8667,-90.4833,10.0,5.7,190.0,6.7,'11111222,11111222,11111222' 
WAVCIS,ioos:station:WAVCIS:CSI06:1,2014-07-08T07:00:00Z,28.8667,-90.4833,10.0,5.7,220.0,6.7,'11111222,11111222,11111222' 
WAVCIS,ioos:station:WAVCIS:CSI06:1,2014-07-08T08:00:00Z,28.8667,-90.4833,10.0,6.2,210.0,7.2,'11111222,11111222,11111222' 
WAVCIS,ioos:station:WAVCIS:CSI06:1,2014-07-08T09:00:00Z,28.8667,-90.4833,10.0,6.7,210.0,7.2,'11111222,11111222,11111222' 
WAVCIS,ioos:station:WAVCIS:CSI06:1,2014-07-08T10:00:00Z,28.8667,-90.4833,10.0,6.2,210.0,7.2,'11111222,11111222,11111222' 
WAVCIS,ioos:station:WAVCIS:CSI06:1,2014-07-08T11:00:00Z,28.8667,-90.4833,10.0,5.1,240.0,6.2,'11111222,11111222,11111222' 
WAVCIS,ioos:station:WAVCIS:CSI06:1,2014-07-08T12:00:00Z,28.8667,-90.4833,10.0,5.1,240.0,5.7,'11111222,11111222,11111222' 
WAVCIS,ioos:station:WAVCIS:CSI06:1,2014-07-08T13:00:00Z,28.8667,-90.4833,10.0,4.6,240.0,5.7,'11111222,11111222,11111222' 
WAVCIS,ioos:station:WAVCIS:CSI06:1,2014-07-08T14:00:00Z,28.8667,-90.4833,10.0,2.1,250.0,3.1,'11111222,11111222,11111222' 
WAVCIS,ioos:station:WAVCIS:CSI06:1,2014-07-08T15:00:00Z,28.8667,-90.4833,10.0,5.1,200.0,5.7,'11111222,11111222,11111222' 
WAVCIS,ioos:station:WAVCIS:CSI06:1,2014-07-08T16:00:00Z,28.8667,-90.4833,10.0,3.1,200.0,3.6,'11111222,11111222,11111222' 
WAVCIS,ioos:station:WAVCIS:CSI06:1,2014-07-08T17:00:00Z,28.8667,-90.4833,10.0,3.1,220.0,3.6,'11111222,11111222,11111222' 
WAVCIS,ioos:station:WAVCIS:CSI06:1,2014-07-08T18:00:00Z,28.8667,-90.4833,10.0,2.6,200.0,3.1,'11111222,11111222,11111222' 
WAVCIS,ioos:station:WAVCIS:CSI06:1,2014-07-08T19:00:00Z,28.8667,-90.4833,10.0,4.1,180.0,4.6,'11111222,11111222,11111222' 
WAVCIS,ioos:station:WAVCIS:CSI06:1,2014-07-08T20:00:00Z,28.8667,-90.4833,10.0,4.6,160.0,5.1,'11111222,11111222,11111222' 
WAVCIS,ioos:station:WAVCIS:CSI06:1,2014-07-08T21:00:00Z,28.8667,-90.4833,10.0,6.2,260.0,8.8,'11111222,11111222,11111222' 
WAVCIS,ioos:station:WAVCIS:CSI06:1,2014-07-08T22:00:00Z,28.8667,-90.4833,10.0,3.6,300.0,5.1,'11111222,11111222,11111222' 
WAVCIS,ioos:station:WAVCIS:CSI06:1,2014-07-08T23:00:00Z,28.8667,-90.4833,10.0,2.6,330.0,4.1,'11111222,11111222,11111222' 
WAVCIS,ioos:station:WAVCIS:CSI06:1,2014-07-09T00:00:00Z,28.8667,-90.4833,10.0,1.0,290.0,1.5,'11111222,11111222,11111222' 
WAVCIS,ioos:station:WAVCIS:CSI06:1,2014-07-09T01:00:00Z,28.8667,-90.4833,10.0,0.0,0.0,0.5,'11111222,11111222,11111222' 
WAVCIS,ioos:station:WAVCIS:CSI06:1,2014-07-09T02:00:00Z,28.8667,-90.4833,10.0,1.5,130.0,2.6,'11111222,11111222,11111222' 
WAVCIS,ioos:station:WAVCIS:CSI06:1,2014-07-09T03:00:00Z,28.8667,-90.4833,10.0,4.1,150.0,5.1,'11111222,11111222,11111222' 
WAVCIS,ioos:station:WAVCIS:CSI06:1,2014-07-09T04:00:00Z,28.8667,-90.4833,10.0,7.2,180.0,8.8,'11111222,11111222,11111222' 
WAVCIS,ioos:station:WAVCIS:CSI06:1,2014-07-09T05:00:00Z,28.8667,-90.4833,10.0,7.7,200.0,8.2,'11111222,11111222,11111222' 
WAVCIS,ioos:station:WAVCIS:CSI06:1,2014-07-09T06:00:00Z,28.8667,-90.4833,10.0,6.2,210.0,7.2,'11111222,11111222,11111222' 